Weather in Romny

Russia / Amur Oblast     50°43′11″N   129°17′29″E
temp.,
°C
wind,
m/s
gust,
m/s
humid.,
%
clouds,
%
prec.,
mm/h
press.,
hPa
HPBL,
m
19 may, wed
wed1900:00+9nne356190 0.0 100488
03:00+8e356474 0.0 1002112
06:00+7nne4757100 0.0 1005210
09:00+11ne6840100 0.0 1005736
12:00+10nne444980 0.0 1006597
15:00+15ne234152 0.0 10041275
18:00+15ne113936 0.0 10041238
21:00+11ese3552100 0.0 100378
20 may, thu
thu2000:00+10e3856100 0.0 1002201
03:00+9e4873100 0.4 1000211
06:00+10s3884100 0.0 999273
09:00+13nw576539 0.0 1002644
12:00+17nw57430 0.0 10041562
15:00+18nw672976 0.0 10051789
18:00+17nnw343718 0.0 1006562
21:00+13ene22435 0.0 100711
21 may, fri
fri2100:00+10ese355399 0.0 100764
03:00+9sse345594 0.0 100660
06:00+10sse3759100 0.0 1006148
09:00+16sse244299 0.0 1005493
12:00+20sse364072 0.0 1004858
15:00+24ssw57385 0.0 10011523
18:00+25sse25475 0.0 999425
21:00+18sse497531 1.3 998127
22 may, sat
sat2200:00+15nnw3482100 0.4 999104
03:00+16sse5127853 0.4 998221
06:00+16s5117793 0.1 998278
09:00+23s7145534 0.3 997690
12:00+28ssw8123892 0.0 9951735
15:00+31ssw7122810 0.0 9933709
18:00+28ssw5113585 0.0 992476
21:00+24s71845100 0.0 991590
23 may, sun
sun2300:00+16ese4887100 2.4 993198
03:00+16w4791100 2.8 993269
06:00+9nw51086100 0.0 997486
09:00+10w4570100 0.0 1000835
12:00+13wsw5756100 0.0 10011398
15:00+14ssw5857100 0.0 10001272
18:00+14w4851100 0.1 10011616
21:00+10wsw36645 0.1 1003130